GFSNGP_prec_cthk_132.txt.gz
RH
72 71 70 67 69 61 59 61 66 48 61 81 73 74 91 96 97 90 91 91 84 81 85 81 74 69 65 56 42 33 32 25 26 27 28 31 34 38 44 46 46 61 75 78
74 66 62 60 64 62 70 77 64 63 75 83 79 81 85 93 95 90 95 91 83 80 74 71 71 67 55 43 36 32 33 27 23 22 23 28 31 35 41 52 48 56 72 82
68 63 65 72 85 85 94 97 91 80 81 81 75 84 88 89 93 93 88 84 80 75 70 69 62 56 49 40 36 35 31 39 31 25 22 25 30 35 39 51 57 50 59 72
83 71 78 87 81 91 95 95 93 91 89 87 82 84 84 85 87 82 76 71 68 66 62 56 50 47 43 40 37 35 33 41 33 29 25 25 29 37 41 52 63 53 58 73
90 85 75 74 83 89 91 91 93 92 82 76 77 74 82 82 77 76 73 65 61 56 53 49 46 42 40 40 40 38 37 36 40 32 27 28 31 34 45 53 61 64 57 67
87 90 90 83 80 86 82 93 88 91 89 90 92 83 82 74 68 65 65 62 58 51 47 48 48 49 47 46 43 39 37 35 34 35 31 30 33 37 40 44 53 73 58 62
83 88 91 86 83 80 84 89 90 92 94 97 97 98 90 81 71 63 58 56 53 51 50 50 50 51 49 50 46 44 40 37 36 36 35 33 34 40 42 41 53 77 74 95
86 82 82 89 86 90 97 97 97 97 97 97 98 98 96 92 86 79 71 64 61 57 54 51 48 45 48 50 51 48 46 45 43 45 38 38 37 40 46 45 47 70 79 68
90 89 90 94 97 97 98 98 97 98 97 97 96 93 90 85 81 75 68 60 56 51 51 50 47 46 46 50 51 53 51 49 48 44 40 41 43 41 46 47 47 58 71 92
91 93 94 96 97 97 97 97 97 93 89 84 82 77 73 71 68 63 58 54 54 53 54 56 55 54 54 59 56 58 57 56 52 50 46 44 51 53 51 53 50 57 72 84
93 96 95 95 96 97 94 92 89 84 78 73 71 69 67 65 62 61 60 60 62 64 66 71 72 69 65 61 61 62 63 65 64 60 56 53 58 58 58 56 56 61 66 75
92 95 97 98 95 93 90 86 83 78 73 70 69 67 66 66 68 70 70 68 70 74 77 78 75 70 75 77 78 80 79 79 74 71 75 69 73 67 64 57 58 64 73 89
89 89 93 93 91 89 85 81 76 71 69 68 67 66 63 62 61 65 71 74 72 75 78 77 76 76 80 86 85 82 84 86 88 88 86 85 76 69 65 64 64 68 73 88
88 86 90 88 87 84 80 76 72 68 65 65 63 60 58 57 57 58 60 67 74 70 77 80 79 77 79 85 88 89 89 93 93 93 89 86 82 73 70 71 69 73 74 91
85 84 85 84 80 77 73 70 67 65 63 59 55 52 52 54 54 54 55 57 64 73 70 73 79 79 81 85 89 91 92 96 96 95 96 97 96 93 81 78 74 76 79 91
83 84 86 83 77 74 72 71 69 62 56 52 50 50 50 51 51 50 51 53 55 59 71 69 70 79 81 84 87 93 95 95 96 96 96 97 97 96 88 81 80 81 88 92
79 79 76 77 78 75 70 65 57 51 51 49 48 48 49 49 50 50 50 51 53 55 59 71 70 71 80 82 84 92 95 96 96 96 96 96 96 97 93 91 88 83 87 92
73 75 74 72 68 65 61 56 51 48 47 47 46 47 46 46 47 49 52 54 57 56 56 61 71 72 71 80 84 85 95 96 96 96 96 97 97 97 97 96 95 93 94 96
73 73 74 73 68 61 56 54 51 49 48 46 45 45 45 47 50 52 56 60 64 65 63 60 64 73 75 72 80 85 87 96 96 96 96 96 96 96 96 96 96 97 96 96
72 75 74 68 61 58 56 54 52 48 45 45 45 47 51 53 56 58 64 69 72 72 72 70 66 68 75 75 73 79 85 87 95 96 96 96 96 96 96 96 97 97 96 96
76 77 74 69 63 60 56 54 51 47 46 47 48 52 55 57 61 68 74 73 73 75 76 76 75 71 73 77 77 75 78 85 85 91 97 97 97 97 97 97 97 97 97 97
84 82 77 71 66 62 58 54 50 51 52 54 56 59 61 63 67 75 77 76 75 77 79 81 83 78 76 79 81 81 78 76 82 87 87 90 95 97 97 97 97 97 96 96
88 83 76 71 66 62 59 56 55 57 56 64 64 65 67 69 71 75 75 75 77 78 78 83 89 91 83 81 83 86 85 82 79 78 82 87 88 88 89 92 95 96 97 95
85 79 75 70 67 64 60 56 58 63 64 66 66 69 68 64 66 69 73 76 78 80 81 88 96 98 92 84 86 89 91 90 86 83 81 80 79 77 77 76 73 71 71 71
82 79 75 72 69 66 62 63 67 64 62 63 63 65 66 66 68 71 74 75 79 83 85 90 94 98 94 85 86 91 90 87 84 79 72 65 63 62 59 59 58 58 57 57
85 80 76 73 71 69 69 68 67 64 64 66 64 64 64 66 68 72 73 73 78 82 88 91 94 96 94 87 87 86 82 80 76 73 70 65 61 55 53 52 52 53 53 52
85 82 79 77 76 73 69 66 65 65 64 64 63 63 63 64 66 68 70 71 74 79 85 92 94 96 94 84 80 80 79 76 70 66 64 64 65 64 58 53 52 50 47 46

GFSNGP_prec_cthk_135.txt.gz
RH
67 61 66 74 77 77 69 68 78 66 80 82 85 95 98 98 98 98 98 98 98 97 97 94 91 87 79 73 69 59 47 42 38 32 23 22 26 28 32 36 37 43 43 44
70 62 65 70 74 78 73 68 80 82 80 82 78 85 94 91 97 95 93 90 91 93 91 85 80 75 70 65 55 48 47 42 37 28 26 21 19 20 26 33 35 38 46 45
71 66 68 78 86 86 87 94 98 92 88 84 85 84 82 90 97 94 92 86 84 84 85 80 74 72 69 60 53 52 49 40 35 36 36 34 29 22 22 30 33 36 45 50
80 77 84 78 76 85 93 92 90 93 86 83 82 87 84 88 89 89 88 82 77 77 74 73 72 68 64 62 55 50 42 37 35 35 36 38 40 32 25 28 31 35 44 49
86 88 78 74 77 83 90 88 89 89 90 91 91 89 85 80 86 82 81 77 74 67 64 60 57 54 55 53 49 45 41 40 41 38 35 35 35 35 29 25 35 34 39 54
80 91 93 87 80 83 91 91 89 90 90 88 83 92 89 80 76 76 74 69 63 59 55 51 49 46 45 46 46 45 43 42 40 35 32 31 32 33 30 27 32 36 39 44
81 84 81 80 83 84 90 91 93 94 93 96 98 98 96 88 81 76 71 66 63 59 55 52 48 46 44 44 42 42 42 43 39 36 33 31 32 31 32 31 29 38 38 45
80 81 75 83 85 91 97 97 97 98 98 98 98 97 96 92 83 75 68 63 59 55 53 52 52 51 49 45 43 39 38 40 40 38 35 33 34 33 32 35 34 36 41 41
85 84 84 89 94 96 96 97 98 95 93 92 88 86 85 83 79 74 67 59 55 53 51 50 50 49 48 48 45 43 42 42 40 40 39 40 38 38 36 35 40 40 37 42
87 90 91 90 93 95 95 96 95 90 84 80 77 74 70 69 64 60 56 54 53 54 51 51 51 50 50 49 46 44 45 47 47 47 47 46 46 45 44 41 43 45 41 43
87 91 92 95 93 95 93 91 88 82 75 70 67 65 63 60 58 59 61 63 61 59 57 59 58 58 59 59 53 53 56 56 55 56 57 57 57 56 54 48 46 47 48 47
87 89 92 96 95 91 91 89 82 74 68 66 63 61 59 57 55 52 51 53 56 60 60 60 65 66 66 64 63 66 71 72 71 72 72 73 73 67 60 56 55 53 54 52
87 89 91 93 91 88 84 81 76 70 65 62 60 58 56 54 52 51 49 48 48 50 60 64 62 66 71 72 73 74 80 82 82 79 79 83 85 82 75 67 64 62 59 57
84 90 90 89 89 85 81 76 71 66 62 59 56 52 49 48 47 47 47 47 49 50 52 58 67 68 69 77 81 82 84 87 90 88 89 91 92 91 84 80 72 66 64 61
81 88 87 86 85 82 75 69 67 66 65 58 51 47 46 46 46 47 48 48 48 50 51 53 58 69 73 74 82 85 85 91 94 91 96 96 94 95 95 88 79 71 67 64
81 80 82 81 79 76 75 72 67 61 54 49 46 45 46 47 47 47 48 48 48 52 55 57 57 61 71 75 77 84 85 91 95 96 96 96 96 96 97 96 93 88 78 70
75 73 74 73 72 70 67 64 60 55 50 47 47 47 46 46 45 46 48 50 52 55 59 64 66 63 63 73 77 77 86 88 96 97 97 97 97 97 96 96 96 93 84 80
73 71 71 71 72 71 67 59 54 51 50 48 46 44 44 45 46 50 52 54 55 57 61 69 73 72 67 66 75 77 78 87 93 96 97 97 96 96 96 96 96 96 91 85
77 74 70 70 70 68 61 57 55 52 48 47 45 45 48 50 52 52 54 56 59 65 69 74 77 77 75 70 71 78 79 81 89 94 96 96 97 96 96 97 97 97 97 92
76 73 72 71 69 68 66 61 56 52 50 49 48 49 50 52 57 58 59 60 65 75 76 77 78 79 79 77 73 75 78 79 82 89 94 97 97 97 97 97 97 97 97 97
81 80 78 75 74 70 69 64 59 56 52 51 50 49 54 61 64 65 63 64 72 76 78 78 79 81 83 84 80 77 81 81 79 83 90 93 97 97 97 97 97 97 97 97
85 85 81 80 77 73 68 63 59 57 54 52 53 52 55 59 63 65 65 64 67 72 75 78 78 80 82 85 86 83 83 84 83 81 82 91 91 96 97 97 97 97 97 97
90 87 85 83 78 73 69 64 61 59 56 56 56 54 57 58 61 63 62 64 68 73 75 78 80 81 84 90 95 92 87 86 86 86 84 82 86 92 93 95 97 97 97 97
90 88 85 82 79 75 69 64 64 62 60 60 58 58 59 60 62 63 66 69 73 75 76 78 82 85 87 94 98 96 89 88 89 89 88 85 79 75 79 87 91 92 96 97
90 88 86 83 79 74 71 68 67 65 61 61 60 61 60 61 61 62 63 65 69 72 74 79 82 88 90 93 97 96 85 84 84 82 77 72 73 68 63 59 57 58 61 64
89 88 86 83 81 77 74 73 72 70 67 66 64 63 61 61 60 61 62 62 65 69 73 78 82 83 92 94 96 95 84 80 78 76 73 70 68 65 65 67 65 62 58 58
91 90 88 85 80 75 70 66 64 64 64 63 61 59 58 59 60 60 60 61 62 65 69 72 77 80 84 94 97 96 92 81 78 75 72 68 66 66 65 60 56 54 53 53

GFSNGP_prec_cthk_138.txt.gz
RH
44 49 56 59 65 76 83 83 80 71 81 83 80 82 86 97 95 97 97 96 96 96 93 97 98 92 93 85 80 70 61 55 47 45 43 39 36 34 25 25 28 33 38 40
59 55 59 66 67 69 77 84 83 84 91 90 87 81 77 83 88 95 97 96 93 91 89 89 90 83 79 75 73 65 59 52 50 45 42 41 36 30 25 26 23 25 34 39
63 65 70 76 74 80 84 90 96 96 95 91 88 83 80 79 83 86 90 92 90 83 76 80 79 78 70 73 72 67 61 55 51 46 42 42 38 32 30 28 29 30 28 35
74 74 85 77 73 75 84 88 92 91 91 92 91 92 82 79 83 87 85 82 78 77 74 74 74 71 70 69 67 66 64 59 54 50 48 44 39 39 38 36 34 29 32 25
82 83 79 84 77 82 85 90 95 90 92 90 90 92 89 88 84 84 83 75 71 68 67 66 65 64 64 63 61 64 59 57 52 51 47 41 38 34 33 33 34 36 31 30
82 86 87 81 75 80 88 95 95 95 94 94 93 92 93 85 82 77 76 72 67 65 60 59 56 52 52 53 48 46 45 42 42 47 48 42 36 34 32 30 32 31 30 29
79 84 77 80 76 82 95 95 98 98 98 98 97 98 97 97 87 79 73 70 66 62 58 55 53 50 48 45 43 42 39 37 36 35 35 35 35 34 33 31 29 29 30 30
85 87 77 78 81 91 96 98 98 98 97 97 96 95 95 94 88 82 76 70 65 62 59 57 53 51 49 47 45 43 42 39 37 36 35 35 35 35 35 34 32 29 28 28
84 82 85 89 91 94 97 97 98 97 91 89 85 82 81 79 76 74 69 68 66 60 55 52 52 52 50 48 47 45 45 43 41 41 40 39 38 38 37 35 34 33 31 29
87 86 89 92 93 92 95 93 93 93 89 80 74 72 69 66 63 61 61 62 61 59 58 59 56 54 54 55 55 51 50 48 46 45 45 45 45 41 40 39 37 36 35 34
84 85 88 93 95 94 95 94 90 86 78 72 70 66 65 63 62 60 58 57 57 58 60 62 64 63 58 56 60 60 59 56 54 52 52 54 53 50 51 48 45 45 43 41
75 83 87 92 95 91 90 87 84 80 72 67 63 61 58 56 54 53 53 52 53 52 51 49 48 51 56 61 60 60 60 63 64 63 63 63 63 64 60 59 60 57 52 51
75 78 90 90 91 91 88 85 81 74 68 64 61 57 53 49 45 43 43 42 42 42 42 41 43 45 49 55 59 60 60 66 69 68 70 72 73 74 71 71 75 74 65 59
79 80 88 91 88 87 84 80 73 69 67 65 60 52 44 42 43 42 41 41 42 42 42 43 45 46 47 47 50 61 62 64 72 72 78 80 81 82 82 83 85 81 80 74
80 79 83 85 87 86 81 75 72 67 62 57 51 45 42 42 43 43 41 40 41 42 43 45 48 50 51 52 52 52 63 64 71 77 83 84 86 89 91 90 89 91 91 87
80 81 80 78 79 76 73 68 64 61 57 52 49 45 44 43 41 41 42 42 43 44 46 48 51 54 58 62 63 59 60 68 70 79 86 89 91 92 92 92 93 94 94 95
83 79 75 71 71 71 69 69 65 60 53 49 48 45 42 42 43 44 45 47 49 49 50 54 59 60 65 69 70 69 62 67 73 75 85 92 94 95 94 94 95 96 96 96
83 79 75 72 69 68 67 69 64 59 54 52 48 46 46 46 48 49 50 52 53 54 57 59 66 72 72 75 75 73 71 68 74 74 80 89 94 96 96 96 96 96 96 96
80 78 76 74 71 69 69 68 64 62 59 56 52 49 49 50 50 50 53 55 57 58 59 65 75 78 77 77 77 78 78 75 75 77 77 85 94 96 96 97 97 97 97 97
78 77 78 79 78 75 71 69 65 65 62 57 56 51 49 50 48 48 50 53 57 62 63 66 73 76 78 79 81 83 84 82 80 82 80 81 91 96 97 97 97 97 97 97
82 82 82 81 79 77 73 71 69 69 65 59 58 55 53 51 48 50 53 56 59 61 64 67 72 76 78 80 82 82 83 85 84 85 87 83 84 94 97 97 97 97 97 97
87 86 86 87 84 81 79 76 73 70 65 62 61 58 55 50 49 51 57 59 60 63 68 72 75 78 81 82 83 84 87 91 92 91 90 89 87 86 95 97 97 97 97 97
88 88 89 88 86 84 82 78 74 71 68 66 65 62 57 54 54 54 55 57 59 62 65 69 74 77 81 84 85 87 89 94 98 95 92 91 92 89 87 93 97 98 98 98
88 87 86 85 84 83 81 79 76 74 71 70 70 68 64 59 58 58 59 59 59 60 63 66 70 75 82 84 86 90 93 96 97 92 90 87 85 83 89 88 88 93 98 98
84 86 85 83 83 82 81 80 78 74 68 66 63 61 59 60 60 60 59 59 59 61 62 65 68 71 76 84 87 92 94 94 93 85 83 82 83 81 75 71 70 67 66 82
86 86 85 84 86 85 79 68 61 60 60 59 57 57 56 57 57 57 57 58 59 59 60 62 64 68 73 78 81 90 91 91 89 85 79 76 76 74 77 80 76 69 67 66
88 88 89 85 68 58 55 54 52 50 51 52 53 55 57 58 58 59 60 61 61 61 62 63 64 66 70 74 77 80 88 86 88 87 83 75 70 71 71 70 68 66 65 64

GFSNGP_prec_cthk_144.txt.gz
RH
26 28 32 33 39 45 51 54 58 51 60 69 78 82 81 79 77 74 68 67 73 80 79 80 84 90 96 97 96 98 92 93 84 82 74 74 66 66 64 46 40 38 35 33
38 36 39 43 44 54 56 55 59 64 68 79 78 76 76 76 74 72 72 70 73 79 78 79 81 85 90 95 94 91 87 72 71 68 67 63 63 61 51 44 43 41 36 34
39 42 46 51 53 57 57 61 70 69 75 78 82 80 82 82 81 77 76 74 74 77 76 75 76 78 83 86 92 90 86 82 74 68 62 60 56 55 50 48 47 43 39 34
46 47 56 59 52 58 61 63 65 73 80 82 82 80 87 89 87 87 81 74 74 74 73 72 67 71 74 78 82 85 85 84 80 72 69 66 62 57 51 50 54 54 48 34
54 46 47 53 56 61 61 61 70 80 82 84 86 88 92 94 91 88 84 77 73 69 67 66 64 65 67 70 71 71 71 73 72 76 77 74 72 64 56 54 57 54 56 45
52 55 55 60 56 58 65 68 77 83 85 87 88 88 91 90 87 85 82 75 68 65 63 59 59 58 56 59 61 61 59 57 60 59 56 56 57 67 63 58 49 47 45 46
56 62 58 61 62 65 70 81 78 86 89 89 92 92 87 87 83 81 78 73 65 61 57 55 53 53 53 52 50 50 50 48 47 46 45 46 42 41 48 53 49 48 46 45
62 69 67 63 67 71 76 77 83 88 89 92 89 86 83 78 73 70 67 62 58 56 55 55 54 51 49 48 47 47 45 44 41 41 40 40 38 37 36 35 35 36 38 44
59 65 63 68 75 77 81 83 86 90 90 90 85 81 75 71 67 61 54 48 46 48 48 47 47 46 44 44 43 43 44 43 41 41 39 40 38 38 36 34 34 33 32 32
57 60 63 69 74 81 87 87 89 90 88 84 82 75 71 70 67 58 48 44 42 42 43 44 43 42 42 42 41 40 39 39 39 40 37 38 37 37 37 37 36 37 35 33
51 60 66 69 76 86 91 90 89 86 83 81 80 75 69 65 62 55 49 47 47 47 45 42 39 39 39 39 39 39 40 39 39 40 39 40 43 41 41 42 40 40 39 38
42 53 61 69 76 88 91 89 89 86 83 82 78 71 63 57 52 48 44 43 44 43 41 40 39 39 39 38 39 38 40 39 38 38 38 37 38 41 44 46 46 48 47 44
45 55 62 70 77 82 90 91 89 84 83 78 73 65 55 51 49 45 44 43 41 39 38 39 40 42 42 42 42 41 41 43 44 44 42 44 43 40 43 49 53 58 60 55
56 56 66 72 76 83 84 86 83 80 76 69 65 60 56 53 50 48 46 43 41 40 39 40 43 44 46 48 49 48 49 49 50 53 51 50 48 46 47 49 57 67 68 63
56 66 72 76 78 79 77 74 72 72 71 69 67 64 60 57 54 51 48 45 43 41 40 40 43 45 48 52 54 54 56 60 62 62 59 58 56 53 51 53 62 71 73 71
68 76 79 78 76 74 73 71 70 71 71 68 67 67 64 61 58 54 50 47 44 43 42 42 43 44 46 49 53 56 59 66 68 67 68 66 63 62 61 62 66 72 75 72
79 83 86 82 80 78 77 76 75 73 69 66 64 57 55 54 57 56 53 49 47 46 44 43 45 46 49 51 56 60 62 66 70 71 73 74 74 73 70 69 66 71 77 76
88 91 89 87 85 83 82 81 77 73 70 65 64 61 58 56 54 54 56 55 52 50 48 46 46 48 49 51 56 62 66 69 73 76 78 79 80 77 76 75 71 71 77 80
94 90 88 86 85 85 83 80 76 71 69 67 65 63 61 60 57 55 56 60 57 54 50 48 47 49 51 53 53 60 65 70 73 78 81 83 83 80 80 78 75 75 78 84
88 88 88 88 87 86 83 78 75 73 71 70 68 66 64 63 62 59 61 61 59 57 55 53 52 52 52 54 56 58 64 68 72 78 82 85 87 86 85 83 81 80 82 87
87 93 92 90 87 84 80 76 74 73 72 72 70 71 71 69 67 64 61 60 56 53 53 52 52 53 54 55 57 60 64 68 71 75 81 86 89 90 88 88 90 88 87 91
94 92 89 87 84 81 78 75 72 71 70 72 72 70 65 61 58 57 55 54 52 51 51 52 52 52 54 56 58 61 64 68 72 76 80 86 91 92 92 95 96 94 92 94
92 89 86 82 79 76 74 73 71 71 70 66 59 54 53 51 49 49 49 48 48 48 49 50 50 51 53 56 59 63 66 68 72 78 81 85 92 95 95 98 97 96 97 95
88 86 84 82 81 80 81 78 76 63 56 51 48 45 44 47 48 49 50 51 51 52 53 54 55 56 57 59 60 62 65 67 69 75 75 79 88 88 91 94 97 97 98 98
90 89 88 88 88 88 81 59 50 45 43 43 43 44 45 48 50 51 53 55 56 57 60 61 61 63 64 65 65 66 67 68 68 74 71 71 80 82 92 88 84 89 96 99
94 95 94 90 76 52 44 42 41 41 43 45 44 45 47 48 50 53 55 57 59 62 63 64 65 67 67 68 69 70 71 72 72 74 74 67 71 76 78 84 87 86 85 85
95 83 63 48 42 41 40 39 40 40 41 42 45 46 48 50 53 56 59 62 64 66 68 69 71 72 73 74 75 76 77 77 77 77 73 73 69 71 77 83 79 77 77 76

GFSNGP_prec_cthk_147.txt.gz
RH
31 33 29 33 36 35 38 46 50 47 55 60 66 61 62 62 63 62 62 63 61 62 62 69 70 74 80 93 98 94 93 95 97 91 94 96 95 95 90 79 73 68 58 52
41 28 23 29 32 33 37 47 48 50 54 68 61 64 65 68 66 66 68 70 64 64 64 70 72 74 72 86 93 97 97 97 93 92 89 82 83 84 88 78 74 69 64 50
42 35 41 46 40 43 45 49 53 52 56 54 61 68 73 73 74 76 77 75 73 68 67 72 72 70 67 75 84 89 97 97 90 83 81 75 71 71 73 71 63 60 52 49
45 48 57 54 50 44 44 49 53 50 53 62 67 69 77 77 80 78 79 75 71 67 66 68 69 66 65 67 71 78 83 89 90 87 81 74 72 68 58 60 66 62 56 48
51 51 60 53 44 42 48 54 54 52 59 68 71 73 84 82 77 78 79 76 73 67 62 62 60 58 58 61 63 66 71 71 74 76 80 83 85 80 73 73 70 62 60 59
52 59 52 65 57 44 48 52 57 62 64 73 73 77 81 79 81 76 75 75 70 66 59 56 56 53 54 54 53 53 57 61 61 63 66 63 61 60 61 64 76 79 70 64
54 59 63 58 51 50 63 76 73 65 71 76 79 79 77 80 75 70 67 64 60 57 56 53 52 51 50 49 49 47 47 48 52 53 52 52 54 53 50 49 52 61 64 61
52 78 64 53 52 59 73 70 69 73 74 79 82 78 77 73 65 62 58 51 45 45 46 46 46 46 45 45 45 45 44 43 44 43 44 44 44 43 42 42 40 42 42 45
61 72 64 53 58 62 64 71 76 77 78 80 80 76 79 70 63 61 56 45 41 40 40 40 41 42 42 44 42 40 39 38 39 40 39 38 37 37 38 37 36 36 36 34
50 50 52 54 56 59 67 76 80 80 77 76 76 76 76 74 61 57 54 45 42 41 41 41 41 40 40 41 39 39 40 39 37 36 36 36 36 36 35 36 35 34 33 33
45 47 49 56 58 64 70 79 83 82 80 79 78 78 74 68 59 54 50 46 44 44 44 42 41 40 41 39 39 39 40 40 40 40 40 39 37 36 37 36 36 36 35 35
47 43 44 53 60 67 74 78 85 84 81 80 77 72 66 63 61 51 47 44 44 44 42 40 38 39 40 41 43 43 43 42 40 39 38 39 39 39 40 39 38 38 38 37
40 41 46 52 62 70 75 79 80 81 80 76 70 66 63 59 58 54 50 49 49 46 43 42 39 38 40 40 43 47 48 48 47 44 43 43 44 43 43 42 41 40 39 39
47 45 50 56 63 71 75 77 76 72 67 68 69 66 64 62 60 57 55 51 47 44 45 41 39 38 41 40 42 45 48 50 49 49 52 56 55 52 51 49 45 44 43 41
51 54 58 66 70 73 73 71 70 69 68 68 68 66 63 62 61 59 56 51 49 51 46 44 43 40 41 42 43 45 47 48 50 53 56 60 61 61 59 56 53 50 47 45
53 53 68 76 79 79 77 75 74 74 72 69 67 64 61 60 58 55 50 48 50 52 53 50 46 44 43 44 45 46 48 50 52 56 61 64 65 65 65 64 62 60 58 56
64 77 81 84 89 88 84 81 81 78 75 70 67 61 58 57 60 56 53 52 55 53 53 52 52 48 47 46 46 48 50 51 53 55 59 65 67 69 71 71 71 70 67 65
81 90 92 92 90 88 85 85 84 81 76 70 64 61 59 57 58 58 56 58 57 56 55 52 51 52 51 50 49 50 53 53 54 56 59 63 68 71 74 76 77 74 70 67
80 89 95 93 89 89 89 87 86 81 71 67 65 63 62 61 60 60 61 59 59 55 51 48 47 46 48 49 51 53 54 55 57 59 62 64 67 72 77 80 81 79 76 74
73 77 83 89 95 91 89 85 79 76 71 69 66 66 62 66 63 57 58 60 58 53 51 51 51 51 52 53 54 57 58 59 60 62 65 67 69 74 77 81 85 85 83 80
74 79 85 85 82 80 77 75 72 71 67 66 66 64 59 57 54 53 55 52 50 47 47 47 47 47 48 50 53 54 56 59 62 65 68 68 71 76 80 82 87 89 88 88
80 83 84 84 82 78 72 70 68 68 68 68 60 52 50 51 49 48 45 46 45 45 46 48 48 48 50 51 53 54 57 59 63 66 68 70 74 78 81 84 90 94 93 95
80 82 82 81 80 78 76 74 74 73 62 48 41 37 39 41 44 45 47 48 47 48 50 51 51 53 55 58 60 61 62 64 65 67 68 70 75 79 79 85 91 94 97 97
80 82 82 82 81 84 84 81 57 39 35 37 37 37 38 41 44 46 46 48 49 50 52 54 56 59 62 64 65 66 68 68 68 69 70 71 75 77 78 81 89 93 99 99
82 85 86 86 86 76 50 40 37 36 36 38 37 37 38 40 43 45 47 49 52 54 58 60 63 64 67 69 71 71 73 74 74 75 76 74 72 76 74 85 86 87 98 99
87 88 84 64 53 44 40 40 39 39 39 40 40 39 41 42 44 46 50 53 56 59 62 65 67 69 72 75 77 79 79 79 79 79 79 79 73 72 79 79 82 85 96 94
88 74 53 45 39 36 35 36 39 39 38 39 42 41 43 44 45 48 51 54 57 60 64 66 70 73 75 78 80 82 82 83 82 82 82 82 82 80 78 86 84 80 79 82